When you browse on this site, cookies collect data to enhance your experience and personalize the content and advertising you see.
Visit our Privacy Policy to learn more. By continuing to use the site, you agree to this use of cookies and data.
  • In United Kingdom
  • List of Countries
  • For 7 days
  • Water Temperature
  • Weather Map
  • Weather Widgets
  • user-avatar
    Login

    Hourly Weather Pecheniya

    Today, 20 September, Friday

    Time Temperature Precipitation Wind Pressure Humidity
    00:00 +5°C° 0 mm 2 mps 744 mmHg 87%
    01:00 +3°C° 0 mm 3 mps 744 mmHg 89%
    02:00 +3°C° 0 mm 3 mps 744 mmHg 92%
    03:00 +3°C° 0 mm 3 mps 744 mmHg 93%
    04:00 +3°C° 0 mm 3 mps 744 mmHg 94%
    05:00 +3°C° 0 mm 4 mps 744 mmHg 94%
    06:00 +3°C° 0 mm 4 mps 744 mmHg 91%
    07:00 +4°C° 0 mm 4 mps 744 mmHg 87%
    08:00 +5°C° 0 mm 5 mps 744 mmHg 82%
    09:00 +7°C° 0.1 mm 5 mps 744 mmHg 74%
    10:00 +8°C° 0.1 mm 6 mps 744 mmHg 67%
    11:00 +10°C° 0.1 mm 6 mps 744 mmHg 59%
    12:00 +10°C° 0.1 mm 6 mps 744 mmHg 56%
    13:00 +11°C° 0.1 mm 6 mps 744 mmHg 53%
    14:00 +12°C° 0.1 mm 7 mps 744 mmHg 50%
    15:00 +11°C° 0.2 mm 6 mps 744 mmHg 54%
    16:00 +10°C° 0.2 mm 5 mps 744 mmHg 57%
    17:00 +10°C° 0.2 mm 5 mps 744 mmHg 61%
    18:00 +8°C° 0 mm 4 mps 744 mmHg 66%
    19:00 +8°C° 0 mm 3 mps 744 mmHg 71%
    20:00 +6°C° 0 mm 2 mps 745 mmHg 76%
    21:00 +5°C° 0 mm 2 mps 745 mmHg 79%
    22:00 +5°C° 0 mm 2 mps 745 mmHg 81%
    23:00 +5°C° 0 mm 1 mps 745 mmHg 84%

    Tomorrow, 21 September, Saturday

    Time Temperature Precipitation Wind Pressure Humidity
    00:00 +4°C° 0 mm 2 mps 745 mmHg 85%
    01:00 +4°C° 0 mm 2 mps 745 mmHg 87%
    02:00 +4°C° 0 mm 2 mps 745 mmHg 88%
    03:00 +4°C° 0 mm 2 mps 745 mmHg 89%
    04:00 +3°C° 0 mm 2 mps 745 mmHg 89%
    05:00 +3°C° 0 mm 2 mps 745 mmHg 90%
    06:00 +3°C° 0 mm 3 mps 745 mmHg 85%
    07:00 +5°C° 0 mm 3 mps 745 mmHg 80%
    08:00 +6°C° 0 mm 4 mps 745 mmHg 75%
    09:00 +7°C° 0 mm 4 mps 745 mmHg 71%
    10:00 +10°C° 0 mm 4 mps 745 mmHg 68%
    11:00 +10°C° 0 mm 5 mps 745 mmHg 64%
    12:00 +10°C° 0 mm 5 mps 745 mmHg 65%
    13:00 +10°C° 0 mm 5 mps 745 mmHg 66%
    14:00 +12°C° 0 mm 5 mps 744 mmHg 67%
    15:00 +13°C° 0 mm 5 mps 744 mmHg 66%
    16:00 +13°C° 0 mm 5 mps 744 mmHg 65%
    17:00 +14°C° 0 mm 4 mps 744 mmHg 64%
    18:00 +12°C° 0 mm 4 mps 744 mmHg 70%
    19:00 +11°C° 0 mm 3 mps 744 mmHg 76%
    20:00 +9°C° 0 mm 2 mps 744 mmHg 82%
    21:00 +9°C° 0 mm 2 mps 744 mmHg 81%
    22:00 +9°C° 0 mm 3 mps 743 mmHg 80%
    23:00 +8°C° 0 mm 3 mps 743 mmHg 79%

    Day after tomorrow, 22 September, Sunday

    Time Temperature Precipitation Wind Pressure Humidity
    00:00 +8°C° 0 mm 3 mps 743 mmHg 78%
    01:00 +7°C° 0 mm 2 mps 743 mmHg 76%
    02:00 +7°C° 0 mm 2 mps 743 mmHg 75%
    03:00 +7°C° 0 mm 2 mps 743 mmHg 75%
    04:00 +7°C° 0 mm 2 mps 743 mmHg 75%
    05:00 +6°C° 0 mm 2 mps 743 mmHg 75%
    06:00 +8°C° 0 mm 2 mps 743 mmHg 71%
    07:00 +9°C° 0 mm 3 mps 743 mmHg 67%
    08:00 +10°C° 0 mm 3 mps 743 mmHg 63%
    09:00 +12°C° 0 mm 3 mps 743 mmHg 59%
    10:00 +16°C° 0 mm 3 mps 742 mmHg 55%
    11:00 +18°C° 0 mm 3 mps 742 mmHg 50%
    12:00 +19°C° 0 mm 3 mps 742 mmHg 49%
    13:00 +20°C° 0 mm 3 mps 742 mmHg 47%
    14:00 +21°C° 0 mm 3 mps 741 mmHg 46%
    15:00 +20°C° 0 mm 3 mps 741 mmHg 50%
    16:00 +20°C° 0 mm 2 mps 741 mmHg 53%
    17:00 +19°C° 0 mm 2 mps 740 mmHg 57%
    18:00 +18°C° 0 mm 1 mps 740 mmHg 64%
    19:00 +15°C° 0 mm 1 mps 740 mmHg 70%
    20:00 +12°C° 0 mm 0 mps 740 mmHg 77%
    21:00 +11°C° 0 mm 0 mps 740 mmHg 77%
    22:00 +12°C° 0 mm 1 mps 740 mmHg 78%
    23:00 +11°C° 0 mm 1 mps 740 mmHg 79%

    23 September, Monday

    Time Temperature Precipitation Wind Pressure Humidity
    00:00 +11°C° 0 mm 1 mps 740 mmHg 80%
    01:00 +11°C° 0 mm 1 mps 740 mmHg 81%
    02:00 +10°C° 0 mm 1 mps 740 mmHg 82%
    03:00 +10°C° 0 mm 1 mps 739 mmHg 82%
    04:00 +10°C° 0 mm 1 mps 739 mmHg 83%
    05:00 +10°C° 0 mm 1 mps 739 mmHg 83%
    06:00 +11°C° 0 mm 1 mps 739 mmHg 80%
    07:00 +12°C° 0 mm 2 mps 739 mmHg 76%
    08:00 +13°C° 0 mm 2 mps 739 mmHg 73%
    09:00 +15°C° 0 mm 2 mps 739 mmHg 66%
    10:00 +17°C° 0 mm 3 mps 739 mmHg 60%
    11:00 +19°C° 0 mm 4 mps 739 mmHg 53%
    12:00 +20°C° 0 mm 4 mps 739 mmHg 51%
    13:00 +21°C° 0 mm 3 mps 738 mmHg 49%
    14:00 +21°C° 0 mm 3 mps 738 mmHg 46%
    15:00 +21°C° 0 mm 3 mps 738 mmHg 50%
    16:00 +20°C° 0 mm 3 mps 737 mmHg 54%
    17:00 +19°C° 0 mm 2 mps 737 mmHg 58%
    18:00 +17°C° 0.1 mm 2 mps 737 mmHg 64%
    19:00 +15°C° 0.1 mm 1 mps 737 mmHg 70%
    20:00 +14°C° 0.1 mm 1 mps 737 mmHg 76%
    21:00 +14°C° 0.1 mm 1 mps 737 mmHg 77%
    22:00 +14°C° 0.1 mm 1 mps 737 mmHg 79%
    23:00 +14°C° 0.1 mm 1 mps 737 mmHg 81%

    24 September, Tuesday

    Time Temperature Precipitation Wind Pressure Humidity
    00:00 +14°C° 0.1 mm 2 mps 737 mmHg 81%
    01:00 +13°C° 0.1 mm 2 mps 736 mmHg 82%
    02:00 +13°C° 0.1 mm 2 mps 736 mmHg 82%
    03:00 +13°C° 0 mm 2 mps 736 mmHg 82%
    04:00 +13°C° 0 mm 2 mps 736 mmHg 82%
    05:00 +13°C° 0 mm 1 mps 736 mmHg 82%
    06:00 +13°C° 0 mm 2 mps 736 mmHg 82%
    07:00 +13°C° 0 mm 2 mps 735 mmHg 81%
    08:00 +14°C° 0 mm 2 mps 735 mmHg 80%
    09:00 +14°C° 0 mm 3 mps 736 mmHg 73%
    10:00 +17°C° 0 mm 3 mps 736 mmHg 67%
    11:00 +19°C° 0 mm 4 mps 736 mmHg 60%
    12:00 +19°C° 0 mm 4 mps 736 mmHg 58%
    13:00 +20°C° 0 mm 4 mps 736 mmHg 57%
    14:00 +20°C° 0 mm 4 mps 735 mmHg 55%
    15:00 +20°C° 0 mm 4 mps 735 mmHg 58%
    16:00 +19°C° 0 mm 3 mps 735 mmHg 60%
    17:00 +19°C° 0 mm 3 mps 735 mmHg 63%
    18:00 +17°C° 0 mm 3 mps 735 mmHg 72%
    19:00 +14°C° 0 mm 2 mps 736 mmHg 81%
    20:00 +12°C° 0 mm 2 mps 736 mmHg 89%
    21:00 +12°C° 0 mm 1 mps 736 mmHg 90%
    22:00 +12°C° 0 mm 1 mps 736 mmHg 91%
    23:00 +11°C° 0 mm 1 mps 736 mmHg 92%

    25 September, Wednesday

    Time Temperature Precipitation Wind Pressure Humidity
    00:00 +11°C° 0 mm 1 mps 736 mmHg 92%
    01:00 +11°C° 0 mm 1 mps 736 mmHg 93%
    02:00 +11°C° 0 mm 1 mps 736 mmHg 94%
    03:00 +10°C° 0 mm 1 mps 736 mmHg 93%
    04:00 +10°C° 0 mm 1 mps 736 mmHg 93%
    05:00 +10°C° 0 mm 1 mps 736 mmHg 93%
    06:00 +11°C° 0 mm 1 mps 736 mmHg 91%
    07:00 +12°C° 0 mm 2 mps 736 mmHg 88%
    08:00 +13°C° 0 mm 2 mps 736 mmHg 85%
    09:00 +15°C° 0 mm 2 mps 737 mmHg 78%
    10:00 +17°C° 0 mm 3 mps 737 mmHg 71%
    11:00 +18°C° 0 mm 3 mps 737 mmHg 63%
    12:00 +19°C° 0 mm 3 mps 737 mmHg 61%
    13:00 +19°C° 0 mm 3 mps 737 mmHg 59%
    14:00 +20°C° 0 mm 3 mps 736 mmHg 57%
    15:00 +19°C° 0.1 mm 3 mps 736 mmHg 61%
    16:00 +19°C° 0.1 mm 3 mps 736 mmHg 65%
    17:00 +18°C° 0.1 mm 3 mps 736 mmHg 70%
    18:00 +16°C° 0 mm 2 mps 736 mmHg 77%
    19:00 +15°C° 0 mm 2 mps 736 mmHg 84%
    20:00 +13°C° 0 mm 2 mps 736 mmHg 90%
    21:00 +13°C° 0 mm 2 mps 736 mmHg 92%
    22:00 +12°C° 0 mm 2 mps 736 mmHg 93%
    23:00 +12°C° 0 mm 2 mps 737 mmHg 94%
    Show more